Regional Weather Roundup
Issued by NWS State College, PA

Home | Current Version | Previous Version | Graphics & Text | Print | Product List | Glossary Off
Versions: 1 2 3 4 5 6 7 8 9 10 11 12 13 14 15 16 17 18 19 20 21 22 23 24 25 26 27 28 29 30 31 32 33 34 35 36 37 38 39 40 41 42 43 44 45 46 47 48 49 50

000
ASUS41 KCTP 270910
RWRCTP

REGIONAL WEATHER ROUNDUP
NATIONAL WEATHER SERVICE STATE COLLEGE PA
400 AM EST THU NOV 27 2014

Note: "fair" indicates few or no clouds below 12,000 feet with no
significant weather and/or obstructions to visibility.

* = STATION THAT DOES NOT REPORT PRECIPITATION /E.G. RAIN...SNOW...ETC/
    THUNDER OR FOG.

PAZ002>004-007>009-013>016-020>023-029>032-271000-
WESTERN PENNSYLVANIA

CITY           SKY/WX    TMP DP  RH WIND       PRES   REMARKS
ERIE           CLOUDY    33  27  78 NE3       30.01S
MEADVILLE      CLOUDY    32  29  88 CALM      29.96S
FRANKLIN*      CLOUDY    30  27  86 W3        29.97S
NEW CASTLE       N/A     32  29  89 CALM      30.01S
BEAVER COUNTY  NOT AVBL
BUTLER*        CLOUDY    30  30 100 SW3       30.00S
PITTSBURGH INT CLOUDY    32  31  96 W3        29.99S FOG
PITTSBURGH     CLOUDY    32  29  88 CALM      29.97F FOG
INDIANA*       CLOUDY    32  32 100 W3        30.01R FOG
LATROBE        CLOUDY    32  32 100 CALM      30.00F FOG
WASHINGTON CO* CLOUDY    32  30  93 CALM      30.01S
$$

PAZ004>006-010>012-017>019-024>028-033>037-041-042-045-046-049>053-271000-
CENTRAL PENNSYLVANIA

CITY           SKY/WX    TMP DP  RH WIND       PRES   REMARKS
BRADFORD       CLOUDY    27  22  81 VRB3      29.93S
DUBOIS         CLOUDY    30  27  88 NE3       29.93F
CLEARFIELD     CLOUDY    30  28  92 CALM      29.95F
JOHNSTOWN      FOG       29  27  92 W6        29.92S VSB 1/2
ALTOONA        CLOUDY    30  29  96 S5        29.96R FOG
STATE COLLEGE  CLOUDY    29  27  94 CALM      29.97R
WILLIAMSPORT   CLOUDY    32  29  88 W5        29.99S
SELINSGROVE    CLOUDY    33  28  81 CALM      30.00S
FT INDIANTOWN  CLOUDY    34  28  79 W8        29.99R
CAPITAL CITY   CLOUDY    34  29  82 NW3       29.99F
HARRISBURG     CLOUDY    34  29  82 NW8       29.98F
YORK           MOCLDY    32  29  88 CALM      29.98F
$$

PAZ038>040-043-044-047-048-054-055-060>062-067>071-271000-
EASTERN PENNSYLVANIA

CITY           SKY/WX    TMP DP  RH WIND       PRES   REMARKS
SCRANTON       CLOUDY    31  26  82 W10       29.94R
MOUNT POCONO   MIX PCPN  27  24  89 NW13      29.85S
ALLENTOWN      CLOUDY    34  27  75 W7        29.95R
QUAKERTOWN*    CLOUDY    32  30  93 W5        29.96R
READING        MIX PCPN  35  29  78 W5        29.97R
LANCASTER      CLOUDY    33  29  85 W8        29.98S
COATESVILLE    MIX PCPN  32  32 100 NW12      29.96F
POTTSTOWN      CLOUDY    33  30  88 W6        29.98R
BLUE BELL      CLOUDY    36  32  87 CALM      29.96R
DOYLESTOWN     CLOUDY    33  30  88 W7        29.94R
WILLOW GROVE   NOT AVBL
NORTH PHILA    CLOUDY    37  29  72 W8        29.98R
PHILADELPHIA   CLOUDY    37  31  78 W9        29.99R
$$



USA.gov is the U.S. government's official web portal to all federal, state and local government web resources and services.